Location: *
(2.0000°S, 30.0000°E)
Time: 04:30:28
(UTC+00:00)

Daily predictions for brighter satellites

Satellite Brightness Start Highest point End
(mag) Time Altitude Azimuth Time Altitude Azimuth Time Altitude Azimuth
Centaur D-1AR AC-39 3.5 01:47:53 29° NNE 01:47:53 29° NNE 01:49:46 10° NE
GPS 2-17 Rocket1 3.8 02:01:21 53° E 02:01:21 53° E 02:05:09 10° ESE
Ariane 44P Rocket 4.5 02:15:00 12° NE 02:15:00 12° NE 02:15:24 10° NE
Abrixas rocket 4.0 02:20:18 28° ESE 02:20:18 28° ESE 02:22:40 10° ENE
CZ-2C R/B 2.4 02:15:00 10° N 02:20:00 65° WNW 02:20:33 60° WSW
PSLV R/B 4.1 02:20:02 10° NNE 02:23:53 64° E 02:27:39 10° S
Meteor 1-14 Rocket 4.1 02:19:12 10° NNW 02:24:41 63° W 02:30:18 10° S
CZ-4B R/B 3.6 02:22:17 10° N 02:25:34 43° NNW 02:25:34 43° NNW
Cosmos 2150 Rocket 4.0 02:27:03 19° NNW 02:30:49 59° WSW 02:36:08 10° S
DELTA 2 R/B (1) 4.5 02:28:55 15° NNW 02:33:13 45° NE 02:38:29 10° ESE
Cosmos 372 Rocket 3.8 02:29:36 10° NNW 02:34:40 62° WSW 02:39:43 10° S
CZ-4C R/B 4.4 02:37:50 18° SW 02:37:50 18° SW 02:41:08 10° SSW
Cosmos 923 Rocket 4.2 02:30:51 10° S 02:36:10 76° E 02:41:28 10° NNE
GPS 2-12 Rocket1 3.0 02:34:53 46° WSW 02:36:19 89° SSE 02:41:05 10° ENE
Okean 1-7 3.3 02:32:15 10° S 02:36:36 69° E 02:40:58 10° N
Ariane H10 3.2 02:33:46 27° WNW 02:36:59 45° NNW 02:40:12 10° ENE
Cosmos 1680 Rocket 4.3 02:32:08 10° S 02:37:18 53° ESE 02:42:26 10° NNE
TSX-5 4.0 02:32:21 10° SSW 02:37:30 85° WNW 02:41:27 10° NNE
ATLAS 3B CENTAUR R/B 3.5 02:34:09 10° NW 02:39:39 25° NNE 02:42:43 10° ENE
Ariane H10+ 2.9 02:41:34 21° NW 02:42:40 23° NNW 02:45:05 10° NE
ARIANE 5 DEB (SYLDA) 4.3 02:39:39 31° W 02:43:06 82° S 02:53:00 10° E
Meteor 1-27 Rocket 4.4 02:41:25 16° SW 02:45:19 33° W 02:50:33 10° NNW
MOS 1-B 4.2 02:40:01 10° N 02:45:47 73° WNW 02:51:35 10° SSW
Ariane H10+ 3.4 02:46:36 30° W 02:49:16 85° S 02:59:45 10° E
Cosmos 2266 Rocket 3.9 02:43:23 10° S 02:49:42 87° W 02:55:51 10° N
Centaur D AC-28 3.8 02:52:06 13° NW 02:52:26 13° NW 02:54:18 10° N
Aurora 2 Rocket 3.6 02:51:05 14° NNW 02:53:18 28° NNE 02:56:36 10° E
CZ-4B R/B 3.6 02:48:49 10° NNE 02:54:08 64° ESE 02:59:24 10° S
Intercosmos 24 Rocket 4.3 02:54:34 10° N 02:58:14 74° E 03:01:49 10° S
Okean O Rocket 1.8 02:54:42 10° NNE 02:59:08 77° ESE 03:03:34 10° S
Cosmos 967 Rocket 4.5 02:55:13 10° NNW 03:01:38 71° WSW 03:08:02 10° SSE
ARIANE 3 DEB 4.0 03:02:33 11° NNW 03:03:34 13° N 03:04:47 10° NE
Cosmos 1484 Rocket 2.8 03:00:51 10° N 03:04:24 47° W 03:07:59 10° SSW
Stardust Del rocket 2.2 03:03:28 29° WSW 03:04:31 72° NNW 03:07:37 10° ENE
GPS 2-14 Rocket1 4.2 03:06:43 16° WSW 03:08:57 24° SSW 03:12:22 10° SE
Longmarch 3A Rocket 3.4 03:01:38 10° SW 03:10:11 36° SSE 03:12:53 10° E
Cosmos 1733 Rocket 3.6 03:09:57 10° NNW 03:13:59 35° W 03:18:01 10° SSW
Cosmos 1340 3.4 03:12:32 10° N 03:16:14 57° E 03:19:56 10° SSE
NOAA 6 4.0 03:11:28 10° N 03:16:39 80° WNW 03:21:50 10° SSW
Cosmos 2221 Rocket 3.5 03:16:04 10° S 03:20:30 77° W 03:24:54 10° N
Meteor 1-11 Rocket 3.7 03:17:27 10° NNW 03:22:52 62° W 03:28:20 10° S
Helios 1A Rocket 4.0 03:24:35 10° NNW 03:27:54 24° WNW 03:31:15 10° SW
Meteor 1-19 Rocket 4.3 03:23:38 10° S 03:29:07 88° E 03:34:41 10° N
Delta 2 Rocket 4.1 03:25:53 10° SW 03:31:38 83° NW 03:37:15 10° NE
Okean 1 3.9 03:29:30 10° SSW 03:33:10 35° W 03:36:47 10° NNW
Cosmos 1980 Rocket 4.3 03:28:36 10° SSE 03:33:32 32° ESE 03:38:26 10° NE
Cosmos 158 Rocket 3.9 03:28:51 10° SSW 03:33:48 85° WNW 03:38:52 10° N
Delta 128 4.3 03:29:54 10° W 03:34:08 37° NNW 03:38:17 10° NE
Cosmos 1553 Rocket 4.3 03:30:50 10° NNW 03:36:37 44° W 03:42:22 10° SSW
